GFSCGP_850_dewp_006.txt.gz
Dewpoint
-2 -1 1 0 -1 -4 -5 -3 -3 -4 -4 -1 -0 -1 -2 -2 1 1 0 -0 0 -1 -3 -3 -2 -2 -3 -2 -3 -3 -4 -5 -6 -6 -5 -5 -5 -5 -7 -10 -15 -20 -22 -22
-1 1 -3 -2 -1 -1 -2 -2 -2 -3 -3 -2 -1 -0 -2 -1 0 0 -0 -0 -1 -1 -2 -4 -2 -2 -2 -3 -3 -3 -4 -5 -6 -6 -5 -5 -5 -5 -8 -12 -16 -21 -21 -21
1 -0 -1 -1 0 0 -0 -2 -2 -2 -4 -3 -2 0 -1 -2 -2 -2 -1 -1 -1 -2 -2 -3 -2 -2 -2 -2 -3 -3 -4 -5 -5 -6 -6 -5 -5 -5 -8 -12 -17 -20 -20 -19
0 -1 -1 0 -0 -1 -0 -2 -2 -1 -2 0 -2 -0 -2 -3 -3 -3 -2 -1 -1 -1 -2 -2 -3 -2 -1 -2 -3 -3 -4 -5 -5 -6 -6 -6 -5 -6 -9 -13 -17 -19 -19 -15
-1 -2 -0 0 -1 -3 -2 -2 -1 -2 -1 -1 -1 1 -3 -4 -4 -5 -6 -6 -6 -2 -1 -2 -2 -3 -2 -2 -2 -2 -3 -5 -6 -7 -7 -6 -5 -6 -10 -12 -17 -17 -16 -13
-2 -3 -3 -2 -3 -3 -3 -2 1 2 1 3 -1 -0 -3 -4 -5 -6 -8 -9 -9 -6 -3 -2 -2 -2 -2 -2 -2 -2 -3 -4 -6 -7 -7 -6 -6 -6 -9 -12 -16 -15 -15 -13
-4 -4 -3 -4 -3 -2 -2 -1 2 2 4 3 -1 0 -3 -7 -7 -7 -8 -9 -7 -6 -3 -2 -2 -2 -2 -2 -2 -2 -2 -4 -6 -8 -7 -6 -6 -7 -9 -12 -14 -14 -13 -12
-0 -3 -2 -3 -3 -2 0 -1 2 3 3 -2 -0 1 -4 -5 -8 -9 -8 -7 -7 -5 -4 -4 -3 -2 -2 -2 -1 -2 -2 -4 -6 -8 -7 -6 -6 -7 -9 -12 -14 -13 -11 -10
-1 1 -3 -3 -4 -3 -1 1 -3 -2 -2 1 1 -0 -5 -4 -5 -6 -6 -7 -7 -7 -5 -5 -4 -2 -2 -2 -1 -2 -2 -4 -6 -7 -7 -6 -6 -6 -9 -12 -13 -12 -10 -10
-2 0 -3 -4 -4 -3 -2 -2 1 1 2 2 -1 -2 -3 -5 -6 -7 -5 -4 -7 -6 -4 -4 -4 -3 -2 -2 -2 -2 -2 -3 -5 -7 -7 -6 -6 -6 -9 -11 -12 -12 -11 -10
-1 -0 1 -1 -1 -1 0 0 1 0 1 1 1 -1 -5 -6 -7 -8 -8 -6 -6 -5 -5 -4 -4 -3 -2 -2 -2 -2 -2 -3 -5 -7 -7 -6 -5 -6 -9 -10 -12 -13 -11 -11
6 8 6 2 -2 -3 -3 -2 -1 2 2 1 -0 -1 -7 -7 -8 -7 -8 -8 -7 -4 -4 -4 -3 -3 -2 -2 -2 -2 -2 -4 -5 -6 -6 -5 -6 -7 -9 -10 -11 -13 -12 -12
6 8 9 7 4 1 2 1 0 -1 -1 1 2 1 -5 -6 -6 -8 -7 -7 -7 -6 -3 -3 -3 -3 -3 -3 -2 -2 -3 -4 -4 -5 -5 -5 -6 -7 -8 -10 -11 -12 -12 -12
4 7 9 9 9 6 6 4 5 5 4 2 1 -0 -2 -5 -6 -6 -7 -7 -7 -7 -5 -4 -3 -4 -4 -3 -4 -3 -4 -4 -4 -5 -5 -6 -7 -8 -9 -10 -12 -12 -12 -12
4 6 4 4 3 2 3 3 3 5 4 6 5 4 -1 -3 -4 -5 -6 -7 -8 -7 -6 -5 -5 -5 -4 -3 -4 -4 -4 -4 -4 -5 -5 -6 -7 -8 -9 -11 -11 -11 -12 -11
3 2 2 3 1 1 0 0 2 3 1 3 4 5 0 -3 -4 -4 -5 -6 -7 -8 -7 -8 -10 -7 -4 -4 -5 -5 -4 -4 -4 -5 -6 -7 -8 -9 -10 -11 -11 -11 -11 -10
0 2 2 2 -1 -1 1 -1 1 -0 -1 2 6 6 2 2 2 -2 -4 -4 -6 -6 -9 -8 -9 -9 -8 -7 -5 -5 -5 -5 -5 -6 -7 -8 -9 -9 -11 -11 -11 -11 -11 -9
1 1 1 2 1 3 -1 -3 -2 -1 -1 4 5 5 4 3 2 2 -1 -3 -4 -4 -5 -5 -7 -8 -8 -6 -5 -5 -5 -5 -5 -6 -8 -9 -9 -11 -11 -11 -11 -11 -10 -9
-0 3 5 5 3 1 0 -1 4 6 6 3 4 4 3 2 2 1 0 0 0 -3 -4 -4 -4 -7 -9 -7 -5 -5 -5 -5 -6 -7 -8 -9 -11 -11 -11 -11 -11 -10 -9 -10
-4 0 3 1 1 2 -5 -1 1 3 4 4 4 3 3 2 3 3 3 4 3 -1 -1 -3 -3 -6 -7 -6 -5 -5 -5 -6 -7 -8 -9 -10 -11 -11 -11 -11 -10 -9 -9 -10
1 2 3 3 3 3 1 1 -4 1 3 3 2 1 2 3 3 3 5 4 0 -3 -1 -3 -4 -5 -6 -5 -5 -5 -5 -6 -7 -9 -10 -11 -11 -11 -12 -10 -9 -9 -9 -7
2 2 1 1 3 0 2 -4 -0 -1 1 1 2 -0 2 4 4 4 5 4 -3 -3 -3 -5 -5 -5 -5 -5 -5 -5 -5 -7 -9 -10 -10 -11 -11 -12 -10 -9 -9 -9 -7 -7
-0 -0 -0 1 -1 -4 -5 -4 -4 -4 -4 -1 0 -1 3 2 5 5 4 5 -4 -3 -5 -5 -6 -5 -4 -4 -4 -5 -6 -8 -10 -11 -11 -12 -12 -9 -9 -9 -9 -8 -7 -7
-2 -3 1 2 -1 -3 -4 -4 -4 -5 -2 -3 -2 -3 2 0 2 4 2 4 2 -5 -5 -6 -6 -5 -5 -5 -6 -6 -7 -9 -10 -11 -12 -10 -9 -9 -8 -8 -8 -7 -7 -6
-1 -2 -2 -1 -3 -4 -4 -5 -6 -5 -4 -3 -3 -4 -4 -0 1 2 2 3 5 -5 -5 -6 -6 -6 -6 -6 -7 -9 -9 -10 -11 -10 -10 -9 -9 -8 -8 -8 -7 -7 -7 -6
-2 -2 -0 -0 -3 -4 -5 -4 -4 -3 -3 -4 -4 -4 -3 -3 0 2 3 3 4 -3 -6 -6 -7 -7 -8 -9 -11 -11 -11 -11 -10 -9 -9 -9 -8 -8 -8 -7 -7 -6 -7 -5

GFSCGP_850_dewp_009.txt.gz
Dewpoint
-2 -1 0 -0 -1 -5 -5 -3 -4 -4 -5 -0 -0 -1 -2 -3 -0 1 1 0 -0 -0 -3 -1 -2 -3 -3 -2 -2 -2 -3 -4 -5 -6 -6 -6 -6 -5 -5 -5 -6 -10 -16 -22
-0 1 -3 -3 -1 -1 -1 -2 -2 -3 -4 -1 -1 -1 -2 -3 -1 -2 -1 0 -0 -2 -2 -1 -1 -1 -2 -2 -3 -2 -3 -3 -4 -5 -6 -6 -6 -5 -5 -6 -7 -12 -17 -20
1 -2 -1 -1 -2 0 -0 -0 -2 -3 -4 -2 -1 -0 -1 -2 -2 -2 -2 -3 -2 -2 -3 -3 -2 -1 -1 -2 -2 -2 -3 -3 -4 -5 -6 -6 -6 -5 -5 -5 -7 -13 -17 -19
-0 -2 -2 -1 0 -1 -1 -1 -1 -1 -1 1 -2 -0 -4 -3 -2 -2 -2 -2 -3 -2 -2 -2 -3 -2 -2 -2 -2 -2 -3 -3 -3 -4 -6 -6 -6 -5 -5 -5 -9 -13 -17 -18
-1 -1 -1 1 -1 -2 0 -2 0 0 0 -1 -1 -0 -3 -4 -4 -5 -6 -5 -6 -6 -4 -2 -3 -3 -3 -3 -3 -2 -2 -3 -3 -3 -5 -6 -6 -6 -6 -6 -9 -13 -17 -18
-3 -5 -3 -2 -3 -2 -3 -2 -1 2 1 2 -1 -0 -2 -6 -5 -6 -7 -7 -8 -10 -9 -7 -5 -3 -2 -2 -2 -2 -2 -2 -3 -3 -5 -6 -6 -7 -6 -6 -9 -13 -17 -17
-4 -3 -3 -5 -3 -2 -2 -1 3 2 4 3 -2 -0 -3 -7 -7 -7 -7 -9 -11 -11 -9 -7 -5 -3 -2 -2 -2 -2 -2 -2 -3 -4 -5 -6 -7 -7 -6 -6 -10 -13 -16 -16
-1 -1 -4 -4 -4 -2 -0 -1 2 4 3 -1 -0 1 -4 -6 -6 -7 -7 -9 -9 -9 -9 -6 -5 -5 -4 -3 -2 -2 -2 -2 -3 -3 -4 -6 -7 -7 -6 -6 -10 -13 -16 -15
-1 -0 -4 -4 -4 -3 -2 1 -2 -1 -2 -0 -2 -2 -5 -4 -4 -5 -6 -7 -7 -7 -6 -7 -5 -4 -3 -3 -3 -2 -2 -2 -2 -2 -3 -6 -7 -7 -6 -6 -9 -13 -15 -14
1 3 -2 -2 -4 -3 -2 -3 1 1 3 3 0 -2 -2 -5 -7 -8 -6 -6 -7 -8 -7 -7 -6 -5 -4 -3 -3 -2 -2 -2 -2 -2 -3 -5 -7 -7 -6 -6 -9 -13 -14 -14
6 5 5 1 1 2 1 1 0 -0 1 2 2 0 -5 -5 -6 -7 -8 -9 -9 -9 -9 -7 -5 -4 -3 -3 -3 -2 -2 -2 -2 -2 -4 -6 -7 -7 -6 -6 -9 -12 -13 -14
6 8 8 6 3 1 0 -0 1 4 5 3 1 1 -6 -7 -7 -8 -8 -7 -6 -7 -8 -8 -6 -4 -3 -3 -2 -2 -2 -2 -2 -2 -4 -6 -7 -7 -6 -6 -9 -11 -12 -13
4 6 6 3 3 3 5 2 2 4 5 7 7 4 -2 -1 0 1 -2 -6 -7 -7 -8 -7 -6 -4 -3 -3 -2 -2 -2 -2 -2 -2 -4 -6 -7 -6 -5 -7 -9 -11 -11 -13
0 5 5 6 5 3 3 2 1 3 5 4 4 3 0 -1 -0 1 1 -0 -5 -6 -7 -7 -6 -4 -3 -3 -2 -2 -2 -2 -2 -3 -4 -6 -6 -5 -5 -7 -9 -10 -11 -13
2 2 0 -0 -1 -1 -0 2 2 2 2 4 -0 -3 -4 -3 1 2 2 2 2 0 -4 -5 -5 -5 -3 -2 -2 -2 -2 -2 -2 -3 -4 -5 -6 -5 -6 -7 -9 -10 -11 -12
0 2 -0 1 -1 -2 -0 -2 -1 1 -1 -1 0 3 0 -0 3 3 2 2 2 1 1 -3 -5 -5 -6 -3 -3 -3 -3 -3 -2 -3 -4 -5 -5 -5 -7 -7 -9 -10 -11 -11
-1 -0 0 2 -1 -1 1 -2 -3 -3 -3 -3 2 2 3 4 3 1 1 2 2 2 3 3 0 -4 -6 -5 -4 -4 -4 -3 -3 -3 -4 -4 -5 -6 -7 -8 -9 -11 -11 -11
-1 -1 1 2 1 3 -1 -4 -2 -0 -2 1 3 5 3 1 1 1 0 2 2 3 4 3 2 0 -3 -5 -6 -4 -3 -3 -3 -4 -4 -4 -5 -6 -7 -9 -10 -11 -11 -11
-3 -0 2 1 0 -1 -2 -3 -1 0 1 4 1 0 2 1 2 -1 0 2 3 4 4 4 2 -1 -1 -3 -5 -4 -3 -3 -4 -4 -4 -5 -6 -7 -8 -9 -11 -11 -11 -11
-3 -0 1 0 2 2 -2 -4 -2 -2 2 -0 -5 0 0 1 3 0 1 2 4 3 2 3 -2 -3 -3 -2 -4 -4 -3 -3 -4 -5 -5 -5 -7 -8 -9 -10 -11 -11 -11 -10
-2 -0 1 0 0 -1 -4 -2 -2 0 0 -4 -3 -1 -0 2 1 1 2 1 4 3 2 2 -3 -2 -1 -2 -4 -4 -4 -4 -5 -5 -5 -6 -8 -9 -9 -11 -11 -11 -10 -9
-1 -1 -1 -2 -1 -0 -2 -4 -2 -2 -3 -3 -2 -3 -1 0 1 1 3 3 2 3 3 0 -3 -2 -2 -3 -4 -4 -4 -4 -5 -5 -6 -7 -9 -10 -11 -11 -11 -10 -9 -9
-0 -2 -2 -1 -1 -5 -6 -4 -3 -3 -3 -3 -3 -3 -3 -2 -2 -0 1 3 1 3 3 0 -4 -3 -3 -4 -4 -4 -5 -5 -5 -6 -7 -9 -10 -11 -11 -11 -10 -9 -9 -8
-3 -4 0 1 -2 -3 -3 -4 -4 -4 -4 -5 -4 -3 -3 -2 -3 -3 -2 3 2 2 2 0 -5 -5 -4 -4 -4 -5 -5 -6 -7 -8 -9 -10 -11 -11 -10 -9 -9 -8 -8 -8
-2 -2 -1 -0 -1 -2 -3 -4 -4 -4 -4 -3 -3 -3 -3 -4 -3 -3 -1 2 3 3 3 1 -1 -6 -6 -5 -5 -5 -6 -7 -8 -9 -10 -11 -11 -11 -10 -9 -8 -8 -8 -7
-2 -1 1 0 -3 -2 -3 -3 -3 -3 -3 -3 -3 -4 -3 -3 -3 -2 -2 -1 2 3 3 1 -2 0 -5 -6 -6 -7 -8 -9 -10 -10 -11 -11 -10 -9 -9 -8 -8 -7 -7 -6

GFSCGP_850_dewp_015.txt.gz
Dewpoint
-2 -2 -3 -2 -0 -3 -4 -3 -3 -4 -5 -4 -3 -3 -4 -5 -3 -3 -4 -6 -7 -7 -9 -8 -7 -5 -3 -2 -0 0 1 1 2 3 3 2 0 -2 -3 -7 -8 -7 -6 -6
-2 -1 -5 -4 -2 -1 -1 -0 -1 -2 -2 -3 -2 -3 -4 -4 -5 -6 -5 -5 -7 -11 -12 -9 -10 -6 -5 -4 -2 -1 -0 1 1 1 0 0 -1 -2 -4 -7 -8 -7 -6 -6
-5 -7 -2 -2 -1 -1 -1 -2 -2 -3 -3 -3 -2 -3 -3 -4 -5 -6 -5 -6 -6 -6 -7 -8 -7 -6 -5 -4 -4 -2 -1 -1 -0 1 1 0 -1 -3 -6 -7 -7 -6 -6 -6
-1 -2 -3 -1 -1 -2 -0 -3 -3 -2 -1 -1 -2 -2 -4 -7 -6 -4 -4 -5 -7 -9 -9 -9 -8 -7 -6 -6 -5 -4 -3 -2 -1 -0 1 -0 -1 -3 -6 -7 -7 -7 -6 -6
-4 -3 -1 1 -0 -2 -0 -2 -1 -0 0 1 -0 1 -5 -5 -5 -6 -7 -8 -8 -10 -11 -11 -10 -9 -9 -7 -5 -4 -3 -1 -2 -1 -0 -0 -1 -3 -5 -6 -6 -6 -6 -6
-3 -4 -3 -3 -3 -1 -2 -1 -0 2 2 4 -1 -1 -3 -5 -6 -6 -7 -9 -10 -8 -6 -6 -7 -7 -8 -8 -6 -4 -3 -2 -1 -1 -1 -1 -1 -2 -4 -5 -6 -6 -6 -6
-3 -4 -4 -4 -3 -3 -2 -0 2 1 4 3 -1 -0 -3 -6 -6 -7 -7 -6 -5 -3 -2 -2 -1 -3 -6 -6 -7 -6 -4 -2 -1 -1 -1 -1 -1 -2 -3 -4 -5 -6 -6 -6
1 1 -4 -2 1 1 -1 -0 1 3 1 0 -2 1 -3 -6 -6 -3 -2 -2 -2 -2 -4 -5 -3 -1 -2 -5 -4 -4 -4 -3 -2 -1 -1 -1 -1 -2 -3 -4 -5 -6 -6 -6
8 4 1 0 1 -1 -0 1 -1 1 2 3 1 -1 -3 -5 -3 -3 -5 -7 -8 -5 -3 -2 -7 -3 1 -4 -4 -2 -2 -2 -2 -2 -1 -2 -2 -2 -3 -4 -5 -6 -6 -6
6 4 3 3 -0 -2 2 0 3 2 5 5 2 2 2 -0 -0 -3 -5 -6 -8 -4 -1 0 -3 -3 1 -0 -4 -2 -1 -2 -2 -2 -2 -1 -2 -2 -3 -4 -5 -6 -7 -7
3 6 1 -1 -2 1 -1 -2 -3 1 2 6 6 4 0 -1 -2 -6 -10 -7 -6 -2 -0 1 1 0 0 1 -3 -2 -1 -2 -2 -2 -2 -2 -2 -2 -3 -4 -5 -6 -7 -6
-0 4 2 -2 -5 -5 -3 1 -3 1 -0 1 1 0 -5 -3 -9 -10 -6 -7 -6 -4 -1 1 1 1 0 1 1 -3 -2 -2 -2 -2 -3 -3 -2 -2 -3 -4 -5 -6 -7 -6
-2 -0 -1 -10 -7 -6 -5 -5 -5 -3 -1 -1 -1 -5 -10 -9 -8 -7 -4 -3 -3 -1 -0 -0 -0 2 2 1 2 2 -2 -2 -2 -3 -3 -3 -3 -3 -3 -4 -5 -7 -7 -6
-2 1 1 -2 -2 -0 -1 -2 -2 -2 0 -0 -1 -2 -4 -4 -4 -0 0 1 -0 -0 -0 -0 0 1 2 3 2 2 1 -2 -2 -3 -3 -3 -3 -3 -4 -4 -5 -7 -7 -6
-1 1 -1 -2 -2 -2 -1 -1 -2 -2 -2 0 -1 -1 -2 -2 0 -2 -2 -2 -1 -1 -0 0 -0 1 2 3 2 2 0 1 -2 -2 -3 -4 -3 -3 -4 -4 -5 -7 -7 -6
-2 -0 -1 0 -2 -3 -3 -3 -3 -3 -3 -3 -3 -1 -1 -0 -1 -2 -2 -2 -1 0 0 0 -0 -0 1 3 3 2 2 -1 0 -2 -2 -3 -4 -3 -3 -5 -6 -7 -7 -6
-1 -1 -1 0 -3 -3 -0 -3 -7 -8 -7 -5 -1 -2 -0 0 -2 -3 -3 -2 -1 -0 -1 -2 -2 -1 0 2 3 2 1 -3 -2 -1 -2 -3 -4 -4 -4 -5 -6 -7 -6 -6
-1 -0 -1 -0 -1 -0 -6 -8 -8 -5 -5 -5 -3 1 -1 -2 -3 -2 -3 -4 -1 -3 -3 -2 -2 -1 0 3 3 3 1 -1 -3 -1 -2 -3 -3 -4 -4 -4 -7 -7 -6 -7
-1 -1 0 1 -1 -3 -5 -7 -7 -5 -2 -3 -1 -2 -3 -2 -2 -3 -4 -4 -3 -2 -2 -2 -2 -1 1 3 3 3 -1 -1 -3 -2 -1 -2 -3 -4 -4 -5 -7 -7 -6 -7
-3 -2 -0 -1 0 0 -7 -9 -8 -4 -1 -2 -3 -2 -2 -2 0 -2 -3 -3 -3 -2 -2 -2 -2 -1 2 3 3 2 -2 -2 -3 -3 -2 -2 -3 -3 -4 -5 -7 -7 -6 -7
-2 -2 -1 -1 0 -2 -6 -7 -5 -1 -2 -3 -2 -2 -2 -1 -2 -3 -2 -2 -3 -2 -3 -3 -1 1 3 3 2 2 -3 -4 -4 -1 -2 -2 -3 -3 -4 -5 -7 -6 -6 -7
-2 -1 -2 -2 -1 -1 -7 -6 -2 -3 -4 -3 -2 -2 -2 -2 -2 -2 -2 -2 -2 -3 -4 -5 -2 2 3 3 2 1 -5 -5 -2 -1 -2 -2 -3 -3 -4 -5 -6 -5 -6 -8
-1 -2 -2 -1 -1 -6 -7 -6 -5 -4 -3 -2 -2 -2 -2 -2 -2 -2 -2 -2 -2 -3 -3 -4 -1 3 2 3 2 -4 -7 -4 -1 -1 -2 -3 -3 -4 -4 -6 -6 -5 -7 -10
-4 -5 -1 -1 -4 -4 -5 -4 -3 -2 -2 -2 -4 -3 -3 -2 -2 -2 -2 -2 -2 -2 -2 -2 -1 3 2 2 -1 -7 -7 -5 -3 -2 -2 -3 -3 -4 -5 -6 -5 -6 -9 -10
-4 -4 -1 -1 -3 -3 -2 -1 -1 -1 -4 -5 -5 -3 -3 -2 -1 -2 -2 -2 -2 -3 -3 -2 -0 3 3 2 -2 -6 -7 -5 -4 -3 -3 -4 -3 -4 -5 -5 -6 -9 -10 -11
-3 -3 -1 -0 -1 0 0 0 -1 -2 -3 -3 -4 -4 -2 -1 -2 -2 -2 -2 -3 -4 -3 -3 -1 2 3 1 -2 -5 -7 -6 -5 -5 -5 -5 -4 -5 -5 -8 -10 -10 -10 -9

GFSCGP_850_dewp_021.txt.gz
Dewpoint
-5 -6 -7 -10 -8 -10 -9 -9 -9 -10 -10 -8 -7 -6 -6 -7 -8 -7 -7 -8 -9 -9 -9 -10 -9 -11 -10 -5 -3 -0 2 5 9 8 6 4 3 2 1 -0 -1 -4 -8 -5
-5 -2 -5 -8 -6 -7 -6 -5 -4 -5 -7 -5 -4 -4 -5 -5 -5 -6 -8 -9 -8 -7 -6 -3 -3 -3 -2 -4 -3 -2 -0 2 7 9 7 5 4 2 0 1 -0 -1 -2 -2
-3 -4 -5 -6 -5 -4 -4 -4 -4 -3 -4 -4 -4 -4 -6 -10 -8 -8 -5 -3 -3 -2 -2 -2 -2 -1 -1 -0 -0 -0 -1 0 3 8 8 6 5 4 3 1 0 -0 -0 -1
-3 -5 -5 -3 -3 -4 -2 -3 -2 -2 -1 -2 -5 -1 -5 -8 -7 -4 -3 -3 -5 -6 -5 -4 -3 -2 -2 -1 1 2 0 -0 0 2 8 8 6 4 3 1 0 0 0 -0
-5 -5 -3 -3 -4 -4 -3 -3 -2 -2 -1 -0 -1 -1 -6 -7 -5 -3 -4 -5 -7 -9 -8 -7 -6 -4 -3 -2 -1 1 2 1 0 1 3 7 7 5 4 2 1 1 1 0
-4 -5 -4 -3 -4 -4 -3 -1 -2 -2 0 3 -3 -3 -5 -6 -4 -2 -4 -4 -5 -8 -9 -7 -6 -6 -5 -3 -1 -1 1 2 1 1 1 4 7 6 4 2 2 1 1 -0
-4 -4 -4 -1 -1 -2 -1 -3 -3 -3 4 3 -5 -5 -5 -7 -3 -4 -7 -8 -9 -10 -8 -7 -6 -6 -6 -3 -3 -2 -0 1 1 1 2 2 5 6 5 3 2 1 1 0
2 -0 -2 -4 -2 1 -0 -2 -1 -1 -4 -4 -4 -3 -7 -7 -6 -8 -12 -15 -16 -10 -6 -5 -5 -5 -5 -3 -3 -2 -1 1 2 1 2 2 2 4 5 4 3 1 1 -0
-0 -1 -4 -8 -3 -4 -4 -3 -2 2 -1 -1 -4 -8 -10 -11 -10 -13 -16 -16 -17 -11 -7 -5 -5 -4 -4 -3 -2 -1 -0 1 2 0 -0 1 1 2 4 4 3 1 1 -0
-4 -7 -10 -5 -9 -6 -5 -11 -8 -7 -5 -7 -14 -11 -10 -8 -11 -14 -14 -15 -15 -10 -7 -6 -5 -4 -3 -3 -2 -1 -0 1 2 2 -0 -0 1 1 1 2 3 2 1 -0
-8 -9 -8 -6 -11 -11 -11 -10 -9 -7 -4 -3 -3 -5 -11 -11 -12 -11 -13 -15 -13 -7 -6 -5 -5 -6 -4 -3 -2 -3 -2 1 2 3 1 -1 -0 0 0 1 2 2 1 -0
-9 -9 -11 -10 -12 -14 -13 -10 -5 -3 -3 -4 -2 -2 -12 -12 -12 -13 -14 -13 -9 -7 -7 -6 -6 -6 -5 -3 -4 -6 -5 -1 1 3 3 -0 -1 -1 -0 -0 1 1 0 -0
-8 -8 -6 -8 -5 -6 -5 -5 -8 -7 -2 -0 -1 -3 -10 -11 -13 -15 -14 -12 -8 -7 -7 -7 -7 -6 -5 -6 -6 -5 -5 -2 0 2 3 1 -1 -1 -1 -0 -0 0 -0 -0
-5 -7 -7 -5 -6 -6 -5 -6 -7 -7 -1 -4 -5 -7 -9 -12 -13 -14 -11 -9 -7 -6 -7 -7 -6 -5 -5 -6 -6 -5 -5 -2 -0 2 2 3 -0 -1 -1 -1 -1 -1 -1 -1
-5 -4 -6 -7 -7 -6 -6 -6 -7 -6 -7 -5 -6 -8 -10 -13 -13 -11 -9 -7 -7 -6 -8 -8 -7 -6 -5 -5 -4 -3 -2 -2 0 2 2 3 2 -1 -1 -1 -1 -1 -1 -2
-6 -2 -3 -3 -6 -6 -6 -7 -7 -8 -8 -9 -11 -11 -14 -12 -11 -8 -6 -7 -7 -7 -6 -8 -7 -6 -5 -5 -4 -3 -2 -2 -0 2 1 3 2 0 -1 -2 -1 -1 -2 -2
-4 -2 -2 -2 -6 -6 -4 -7 -9 -11 -12 -11 -8 -9 -11 -8 -7 -6 -6 -6 -6 -6 -6 -6 -5 -5 -4 -4 -3 -3 -4 -3 0 1 2 3 1 1 -1 -2 -1 -1 -2 -3
-4 -4 -3 0 -3 -1 -8 -11 -11 -11 -11 -10 -10 -9 -8 -6 -5 -6 -6 -5 -5 -5 -5 -5 -5 -5 -4 -4 -3 -3 -5 -4 -0 1 1 2 1 0 0 -1 -2 -2 -2 -3
-7 -4 -2 -0 -2 -5 -8 -10 -9 -7 -7 -8 -8 -4 -5 -5 -5 -5 -6 -6 -5 -5 -5 -6 -6 -5 -5 -5 -5 -4 -4 -4 -1 1 1 1 -0 -1 -0 0 -2 -2 -2 -3
-9 -8 -2 -2 1 0 -7 -9 -10 -8 -3 -6 -3 -3 -4 -4 1 -1 -5 -5 -6 -6 -6 -6 -5 -5 -5 -5 -4 -4 -3 -2 -0 1 1 1 -1 -2 -3 -0 -1 -2 -2 -3
-7 -6 -1 -0 1 -3 -9 -10 -8 -1 -2 -4 -4 -3 -3 -1 -1 -2 -4 -5 -7 -6 -6 -6 -5 -4 -4 -4 -4 -4 -3 -1 1 0 0 -0 -3 -4 -5 -0 0 -2 -2 -3
-4 -3 -4 -6 -2 -2 -11 -9 -6 -6 -5 -3 -3 -3 -2 -1 -0 -1 -4 -5 -6 -6 -6 -5 -4 -4 -4 -4 -4 -4 -3 0 1 0 0 -1 -4 -5 -5 -1 1 -1 -2 -3
-5 -7 -4 -5 -4 -9 -9 -8 -7 -6 -4 -2 -1 -1 -1 -1 -3 -6 -5 -5 -6 -6 -5 -5 -4 -4 -3 -4 -4 -4 -3 1 1 0 -0 -4 -5 -3 -2 -0 1 -1 -2 -3
-9 -10 -5 -4 -7 -8 -9 -8 -6 -2 -1 -1 -2 -3 -3 -2 -3 -3 -3 -5 -5 -5 -5 -4 -4 -4 -3 -3 -3 -4 -3 0 0 1 -1 -5 -3 0 -0 -1 1 -0 -2 -3
-6 -7 -6 -6 -8 -8 -7 -5 -3 -2 -2 -3 -3 -3 -3 -3 -2 -2 -4 -4 -5 -5 -4 -4 -3 -3 -3 -3 -3 -4 -3 0 1 0 -2 -4 -0 -1 -1 -1 0 -1 -3 -4
-6 -6 -5 -3 -8 -5 -3 -2 -1 -2 -2 -1 -2 -2 -3 -4 -4 -5 -5 -5 -5 -4 -4 -4 -3 -3 -3 -3 -3 -3 -3 1 1 -1 -2 -2 0 1 -1 -1 0 -1 -3 -4

GFSCGP_850_dewp_027.txt.gz
Dewpoint
-3 -3 -4 -4 -6 -6 -5 -5 -4 -4 -4 -3 -3 -2 -4 -2 -3 -6 -7 -8 -7 -6 -6 -6 -6 -6 -5 -5 -4 -4 -2 -1 2 6 10 11 9 9 8 8 7 7 6 3
-4 -2 -4 -5 -5 -4 -4 -2 -2 -2 -2 -3 -2 -2 -2 -5 -6 -7 -8 -8 -8 -7 -7 -7 -6 -6 -6 -6 -6 -6 -6 -6 -6 -6 -2 3 9 8 8 9 8 6 6 5
-3 -2 -4 -5 -3 -2 -2 -2 -1 -0 -1 -2 -3 -2 -0 -5 -6 -7 -10 -8 -8 -8 -8 -9 -10 -9 -9 -9 -5 -5 -7 -7 -8 -7 -8 -7 4 7 6 6 6 5 5 5
-3 -5 -3 -2 -2 -2 -1 -2 -1 0 1 -0 -2 3 -1 -3 -4 -5 -12 -11 -8 -8 -7 -7 -8 -9 -7 -9 -7 -4 -3 -5 -7 -8 -7 -4 -3 -4 0 5 4 5 5 4
-3 -4 -3 -2 -1 -2 -1 -1 -0 1 2 1 1 2 1 -2 -6 -11 -14 -14 -14 -8 -8 -7 -7 -8 -9 -6 -6 -5 -3 -2 -2 -2 -4 -0 2 2 -2 -0 4 6 4 4
-2 -4 -4 -3 -3 -2 -2 -0 -3 -2 0 2 -1 2 1 -2 -9 -12 -12 -13 -14 -14 -8 -7 -7 -8 -9 -7 -7 -6 -6 -4 -2 -2 -2 -0 2 3 2 1 0 4 7 4
-1 -2 -2 -6 -3 -1 -3 -2 1 -0 3 4 -2 -3 -2 -11 -11 -11 -11 -13 -14 -14 -7 -7 -7 -8 -7 -6 -9 -6 -6 -3 -3 -4 -5 -5 -2 2 3 3 1 1 5 6
-2 -0 -1 -8 -2 -2 -2 -2 2 3 3 4 -2 -2 -3 -12 -11 -11 -12 -12 -14 -14 -8 -8 -8 -8 -7 -7 -8 -9 -6 -3 -5 -6 -5 -6 -6 -2 -0 1 3 0 1 6
1 0 -9 -4 -5 -5 -3 -4 -6 -3 -1 0 0 -4 -10 -10 -10 -10 -11 -11 -13 -14 -9 -8 -7 -7 -7 -7 -8 -6 -5 -6 -5 -5 -6 -5 -5 -4 -4 -2 -0 2 -1 1
-7 -6 -9 -6 -7 -7 -7 -7 -4 -5 -4 -3 -5 -6 -2 -8 -8 -10 -10 -11 -11 -10 -8 -7 -7 -8 -9 -8 -8 -6 -6 -8 -7 -7 -6 -4 -3 -4 -4 -3 -2 -0 -1 -1
-9 -8 -9 -12 -9 -9 -9 -9 -9 -7 -6 -4 -2 -3 -9 -8 -8 -9 -10 -11 -11 -9 -8 -7 -8 -9 -9 -7 -7 -7 -7 -9 -5 -5 -3 -2 -2 -2 -2 0 1 2 0 -1
-8 -7 -7 -11 -10 -9 -10 -11 -10 -4 -3 -2 -2 -2 -8 -8 -9 -10 -10 -11 -11 -7 -7 -7 -8 -9 -7 -6 -6 -6 -6 -6 -5 -4 -3 -4 -4 -2 -1 0 0 -1 1 1
-6 -8 -6 -9 -4 -6 -6 -7 -6 -5 -2 -2 -1 -4 -8 -9 -9 -10 -10 -11 -9 -6 -6 -6 -6 -5 -5 -5 -5 -5 -5 -5 -5 -5 -4 -3 -3 -3 -1 -0 -2 0 -1 1
-6 -5 -8 -6 -6 -5 -4 -4 -5 -6 -3 -3 -3 -5 -7 -8 -9 -10 -11 -7 -6 -6 -6 -6 -5 -5 -5 -5 -5 -5 -5 -5 -6 -6 -4 -5 -5 -4 -4 -1 0 1 -1 1
-4 -2 -4 -4 -4 -3 -3 -3 -4 -4 -5 -3 -5 -5 -7 -9 -10 -5 -4 -5 -4 -5 -5 -6 -6 -5 -5 -6 -6 -6 -6 -6 -5 -5 -5 -5 -4 -4 -4 -3 0 2 0 -0
-6 -3 -3 -2 -3 -3 -3 -4 -5 -5 -5 -5 -6 -6 -10 -7 -3 -3 -3 -4 -4 -5 -5 -5 -4 -5 -5 -6 -6 -8 -6 -6 -5 -5 -4 -5 -4 -3 -4 -2 1 1 1 0
-5 -2 -2 -2 -3 -3 -2 -4 -6 -7 -8 -7 -6 -7 -3 -2 -3 -4 -4 -4 -4 -4 -3 -3 -3 -3 -5 -6 -7 -7 -6 -5 -4 -5 -5 -3 -4 -5 -2 1 1 -1 0 1
-4 -3 -2 -2 -2 -2 -6 -7 -7 -5 -6 -6 -6 -5 -3 -4 -6 -6 -4 -4 -4 -3 -3 -2 -2 -3 -3 -5 -6 -6 -6 -5 -4 -4 -4 -5 -4 -3 0 -0 -1 -2 -1 -0
-6 -4 -2 -2 -2 -3 -4 -6 -5 -5 -5 -6 -5 -5 -7 -8 -7 -4 -4 -4 -2 -2 -2 -2 -2 -2 -4 -5 -5 -5 -5 -5 -5 -4 -4 -3 -3 -3 -1 -1 -2 -1 -1 0
-5 -5 -3 -2 -4 -2 -5 -6 -8 -8 -5 -7 -7 -7 -5 -1 0 -2 -2 -2 -2 -2 -2 -2 -2 -3 -3 -4 -5 -4 -5 -5 -4 -4 -3 -4 -4 -3 -2 -3 -3 -2 -0 -1
-5 -4 -2 -1 -3 -2 -5 -7 -9 -5 -7 -7 -7 -2 -2 -1 -2 -2 -2 -2 -2 -2 -2 -2 -3 -3 -3 -3 -4 -4 -5 -5 -4 -3 -3 -3 -4 -3 -3 -2 -1 -1 -0 -3
-4 -4 -3 -2 -2 -1 -7 -8 -6 -7 -7 -7 -3 -2 -2 -2 -2 -2 -2 -2 -2 -3 -3 -3 -3 -4 -4 -4 -3 -3 -5 -4 -3 -3 -3 -3 -3 -3 -3 -3 -1 -1 -2 -4
-2 -4 -3 -4 -4 -7 -8 -8 -8 -7 -3 -2 -3 -3 -3 -2 -2 -3 -3 -4 -5 -6 -6 -6 -6 -6 -6 -5 -5 -5 -3 -3 -4 -3 -2 -3 -4 -3 -3 -2 -1 -2 -1 -2
-6 -7 -5 -5 -7 -8 -8 -9 -7 -3 -3 -4 -4 -3 -3 -3 -4 -6 -6 -6 -6 -5 -5 -5 -5 -6 -5 -5 -5 -5 -5 -4 -4 -4 -4 -4 -4 -2 -2 -2 -2 -2 0 0
-6 -6 -6 -5 -6 -7 -7 -5 -3 -3 -6 -5 -5 -6 -6 -6 -5 -5 -5 -4 -4 -4 -4 -4 -3 -2 -3 -3 -4 -4 -3 -4 -4 -4 -4 -3 -2 -2 -1 -2 -2 -1 1 1
-5 -5 -4 -4 -7 -6 -5 -3 -4 -6 -6 -6 -6 -5 -4 -4 -4 -4 -4 -4 -4 -3 -3 -3 -3 -3 -3 -3 -3 -3 -3 -3 -4 -5 -4 -3 -3 -1 -0 -1 -2 -1 2 2

GFSCGP_850_dewp_030.txt.gz
Dewpoint
-2 -3 -4 -4 -6 -6 -6 -5 -3 -4 -4 -3 -3 -2 -5 -7 -8 -8 -7 -6 -7 -8 -10 -11 -12 -13 -14 -13 -11 -10 -8 -7 -7 -6 -3 1 4 9 9 9 8 8 8 8
-4 -3 -4 -5 -5 -4 -3 -2 -2 -2 -2 -3 -3 -2 -5 -7 -7 -8 -7 -7 -8 -8 -9 -10 -11 -12 -14 -15 -14 -12 -9 -9 -10 -9 -8 -7 -5 2 4 7 8 5 5 6
-3 -3 -4 -4 -2 -2 -3 -2 -2 -1 -1 -3 -3 -0 -4 -5 -11 -11 -7 -7 -7 -7 -8 -8 -9 -10 -11 -12 -13 -13 -9 -6 -5 -7 -9 -9 -8 -6 -5 -0 3 6 6 2
-4 -4 -3 -3 -3 -2 -1 -2 -1 -0 1 0 -2 1 -0 -4 -10 -13 -13 -10 -7 -7 -7 -8 -9 -10 -8 -10 -12 -11 -11 -7 -3 -3 -4 -4 -3 -1 -2 -1 -1 -1 4 5
-4 -4 -3 -3 -2 -2 -1 -2 -1 -0 1 1 1 2 1 -7 -10 -11 -12 -13 -14 -8 -7 -7 -9 -10 -9 -9 -10 -10 -13 -6 -3 -3 -3 -4 -6 -7 -5 -1 -1 -1 -1 0
-1 -3 -3 -3 -4 -2 -3 -4 -4 -0 1 2 -1 2 2 -7 -10 -11 -12 -13 -14 -14 -8 -8 -9 -10 -10 -9 -10 -13 -10 -6 -4 -5 -5 -6 -6 -6 -8 -7 -5 -2 -1 1
-2 -1 -4 -6 -4 -4 -4 -2 -1 -2 2 0 -1 -3 -3 -11 -11 -11 -12 -12 -13 -14 -8 -8 -8 -8 -9 -9 -11 -11 -13 -8 -5 -5 -5 -5 -6 -6 -5 -5 -5 -5 -5 -5
-1 -3 -6 -7 -4 -4 -3 -2 -1 -6 0 2 -1 -4 -7 -11 -11 -11 -11 -11 -11 -12 -8 -7 -7 -8 -8 -10 -8 -7 -9 -7 -6 -7 -8 -10 -7 -5 -3 -2 -3 -3 -5 -2
-4 -4 -9 -5 -6 -8 -6 -4 -4 -3 -2 -1 -1 -8 -10 -10 -10 -10 -10 -11 -11 -11 -8 -7 -8 -8 -9 -10 -7 -7 -7 -7 -7 -7 -8 -9 -4 -3 -4 -2 -2 -2 -4 0
-7 -9 -11 -9 -8 -10 -8 -7 -2 -5 -6 -4 -5 -5 -4 -8 -8 -9 -10 -10 -10 -10 -7 -7 -7 -8 -8 -9 -9 -8 -6 -5 -6 -7 -8 -10 -8 -4 -5 -5 -4 -2 -1 -2
-9 -8 -12 -12 -9 -9 -9 -9 -8 -7 -6 -5 -4 -5 -8 -8 -8 -9 -10 -10 -10 -10 -7 -6 -7 -7 -8 -7 -6 -5 -5 -6 -7 -6 -5 -5 -8 -9 -4 -4 -5 -1 -1 -2
-7 -7 -6 -11 -13 -10 -11 -10 -9 -5 -7 -3 -2 -2 -8 -8 -9 -10 -9 -10 -10 -7 -6 -6 -6 -6 -7 -7 -6 -5 -5 -7 -7 -5 -6 -8 -8 -5 -4 -5 -4 -4 -2 -2
-9 -10 -9 -13 -5 -7 -6 -7 -6 -5 -3 -2 -2 -4 -9 -9 -9 -9 -9 -7 -6 -5 -5 -5 -7 -6 -6 -6 -5 -5 -6 -6 -6 -7 -8 -5 -5 -7 -5 -5 -4 -4 -4 -2
-7 -7 -12 -8 -10 -5 -3 -5 -5 -5 -3 -4 -4 -6 -8 -8 -8 -9 -5 -4 -4 -4 -5 -5 -6 -5 -5 -4 -5 -5 -6 -6 -10 -9 -7 -5 -5 -5 -5 -5 -3 -4 -4 -1
-5 -3 -3 -4 -4 -3 -3 -3 -3 -3 -4 -3 -5 -5 -6 -8 -9 -5 -3 -4 -4 -5 -5 -5 -5 -4 -4 -4 -4 -4 -5 -6 -9 -8 -8 -6 -4 -5 -3 -3 -4 -5 -1 1
-5 -4 -3 -2 -4 -3 -2 -3 -3 -3 -4 -4 -5 -4 -8 -10 -5 -4 -4 -5 -7 -7 -6 -5 -4 -4 -4 -4 -3 -3 -5 -5 -7 -7 -6 -6 -5 -4 -4 -6 -3 -0 0 -1
-5 -3 -2 -2 -3 -3 -3 -3 -4 -5 -6 -6 -5 -7 -8 -4 -4 -6 -8 -7 -7 -5 -4 -4 -3 -3 -3 -3 -3 -2 -3 -5 -5 -6 -6 -6 -6 -4 -4 -3 -2 -3 -2 -2
-4 -3 -2 -2 -3 -6 -10 -7 -7 -6 -6 -6 -5 -5 -5 -5 -8 -7 -5 -5 -4 -3 -3 -3 -2 -2 -2 -2 -2 -3 -3 -4 -6 -6 -5 -5 -6 -5 -3 -3 -5 -3 -1 -3
-6 -4 -3 -3 -2 -4 -6 -6 -6 -6 -6 -6 -6 -5 -7 -7 -3 -3 -5 -4 -4 -3 -3 -2 -3 -2 -2 -2 -3 -3 -3 -4 -4 -4 -4 -5 -5 -4 -3 -4 -4 -2 -2 -3
-5 -5 -4 -2 -4 -3 -8 -7 -7 -8 -5 -7 -7 -6 -4 -2 -1 -3 -4 -3 -3 -3 -3 -3 -3 -4 -4 -4 -4 -3 -4 -4 -3 -4 -4 -5 -5 -3 -3 -3 -3 -3 -4 -4
-3 -3 -2 -1 -3 -3 -6 -7 -7 -5 -5 -8 -5 -2 -2 -2 -4 -4 -3 -4 -4 -5 -6 -6 -6 -6 -6 -6 -6 -5 -5 -4 -5 -3 -4 -5 -3 -3 -3 -3 -3 -4 -5 -3
-3 -3 -2 -2 -2 -1 -7 -7 -7 -8 -7 -3 -3 -4 -4 -4 -4 -4 -5 -6 -6 -5 -5 -5 -5 -5 -5 -5 -5 -5 -5 -5 -4 -5 -4 -3 -5 -4 -3 -5 -7 -6 -3 -1
-3 -6 -4 -3 -3 -7 -8 -8 -8 -7 -3 -3 -5 -6 -5 -5 -6 -5 -5 -5 -4 -4 -4 -4 -4 -4 -4 -4 -4 -3 -3 -3 -3 -4 -5 -5 -4 -4 -5 -5 -3 -2 -2 -0
-5 -6 -4 -6 -6 -7 -8 -8 -8 -5 -3 -5 -6 -7 -6 -5 -5 -4 -4 -4 -4 -5 -5 -4 -4 -3 -3 -3 -3 -3 -3 -3 -3 -3 -4 -3 -4 -4 -4 -3 -2 -2 -1 -1
-5 -7 -6 -5 -8 -8 -8 -7 -6 -4 -5 -7 -7 -6 -6 -5 -4 -4 -5 -5 -5 -5 -4 -3 -3 -3 -3 -3 -3 -3 -3 -3 -3 -3 -3 -3 -4 -5 -5 -4 -3 -1 -1 -2
-5 -5 -4 -5 -8 -7 -7 -6 -3 -5 -6 -6 -6 -7 -5 -4 -5 -5 -5 -4 -4 -3 -3 -3 -3 -3 -3 -3 -3 -3 -4 -3 -3 -3 -3 -5 -5 -4 -4 -4 -1 -1 -2 -2

GFSCGP_850_dewp_033.txt.gz
Dewpoint
-2 -2 -4 -5 -5 -5 -6 -5 -4 -4 -4 -3 -3 -4 -6 -7 -7 -8 -8 -8 -8 -8 -10 -11 -12 -13 -14 -16 -17 -18 -18 -17 -16 -14 -10 -8 -5 3 5 7 9 10 10 9
-4 -3 -5 -5 -5 -4 -3 -2 -2 -3 -2 -2 -4 -4 -6 -7 -7 -7 -7 -7 -8 -8 -10 -11 -12 -14 -15 -16 -17 -18 -18 -16 -12 -11 -8 -8 -8 -5 -3 -1 3 6 6 6
-3 -4 -4 -4 -3 -2 -3 -3 -2 -1 -1 -3 -3 -2 -5 -10 -12 -9 -7 -7 -7 -8 -9 -10 -12 -13 -13 -13 -14 -15 -18 -16 -9 -7 -7 -9 -10 -9 -10 -8 -5 -2 1 2
-4 -4 -3 -3 -3 -2 -2 -3 -2 -0 1 -1 -2 1 -3 -8 -12 -12 -13 -11 -7 -7 -8 -9 -10 -11 -12 -12 -13 -13 -14 -14 -15 -8 -5 -6 -6 -6 -7 -8 -10 -9 -5 -2
-5 -4 -3 -3 -2 -2 -1 -2 -1 -1 1 0 0 2 0 -10 -10 -11 -12 -13 -13 -9 -7 -8 -9 -10 -11 -11 -12 -12 -12 -12 -13 -14 -10 -5 -6 -8 -7 -6 -8 -9 -10 -8
-1 -2 -3 -3 -4 -3 -5 -5 -3 0 1 1 -2 1 1 -4 -10 -11 -11 -11 -12 -12 -10 -8 -9 -9 -10 -10 -11 -11 -11 -11 -12 -11 -9 -8 -10 -11 -8 -6 -2 -2 -4 -7
-4 -2 -4 -6 -5 -5 -4 -5 -6 -6 0 -1 -1 -1 -3 -11 -11 -11 -11 -11 -11 -11 -12 -8 -8 -9 -9 -9 -10 -10 -9 -8 -8 -9 -8 -7 -8 -8 -4 -2 -2 -3 -3 -3
-2 -6 -6 -5 -4 -5 -4 -3 -5 -8 -5 -2 -1 -3 -7 -11 -11 -10 -10 -11 -11 -10 -11 -8 -8 -8 -8 -9 -9 -9 -8 -9 -8 -8 -7 -7 -7 -8 -9 -5 -4 -4 -5 -4
-8 -9 -10 -7 -8 -8 -7 -5 -5 -4 -4 -2 -2 -5 -10 -10 -10 -10 -9 -10 -10 -10 -10 -7 -7 -7 -7 -7 -7 -7 -6 -6 -6 -6 -7 -7 -6 -7 -7 -9 -11 -4 -6 -4
-7 -13 -12 -9 -8 -11 -8 -7 -3 -5 -7 -6 -7 -7 -4 -9 -8 -9 -10 -9 -10 -10 -10 -7 -7 -6 -6 -6 -7 -7 -7 -7 -6 -6 -6 -6 -5 -5 -6 -10 -9 -4 -5 -3
-9 -10 -15 -12 -10 -9 -9 -9 -7 -7 -6 -5 -4 -7 -9 -9 -8 -9 -9 -9 -8 -7 -7 -6 -6 -6 -6 -7 -10 -8 -7 -6 -5 -6 -7 -7 -7 -9 -11 -10 -14 -12 -7 -4
-7 -8 -9 -13 -13 -11 -11 -11 -10 -5 -7 -4 -3 -2 -9 -8 -9 -9 -9 -9 -8 -6 -7 -7 -7 -8 -8 -8 -8 -5 -5 -5 -5 -5 -6 -7 -13 -13 -9 -8 -9 -7 -5 -4
-11 -11 -11 -12 -8 -7 -6 -6 -6 -4 -3 -3 -3 -5 -9 -8 -9 -9 -8 -9 -6 -7 -7 -7 -7 -6 -6 -6 -5 -5 -7 -6 -6 -5 -6 -7 -10 -9 -9 -5 -7 -6 -6 -4
-8 -10 -13 -7 -10 -6 -7 -5 -5 -5 -3 -3 -4 -7 -10 -10 -8 -8 -8 -8 -6 -6 -6 -7 -7 -7 -6 -5 -5 -4 -5 -5 -5 -5 -5 -6 -7 -8 -8 -6 -6 -5 -5 -5
-7 -6 -5 -5 -7 -6 -4 -4 -4 -3 -4 -3 -9 -6 -8 -8 -7 -8 -8 -6 -6 -7 -8 -7 -6 -5 -4 -4 -5 -4 -4 -3 -4 -3 -5 -5 -5 -7 -7 -6 -7 -4 -4 -3
-5 -5 -3 -3 -4 -3 -2 -3 -4 -4 -4 -4 -5 -4 -7 -7 -8 -7 -6 -7 -8 -6 -5 -5 -5 -5 -5 -4 -3 -3 -3 -2 -3 -4 -3 -4 -4 -5 -9 -6 -6 -5 -4 -3
-4 -3 -2 -4 -4 -4 -5 -7 -5 -4 -4 -4 -3 -6 -8 -6 -6 -6 -7 -6 -4 -4 -4 -5 -5 -4 -4 -3 -3 -2 -2 -2 -2 -2 -3 -4 -4 -6 -6 -5 -5 -5 -3 -3
-4 -3 -2 -2 -4 -7 -10 -8 -6 -5 -6 -6 -6 -6 -5 -6 -7 -5 -4 -4 -4 -5 -5 -4 -4 -4 -4 -4 -4 -4 -4 -4 -3 -3 -3 -3 -4 -4 -5 -4 -5 -6 -3 -3
-5 -4 -3 -4 -3 -5 -7 -7 -6 -5 -5 -6 -5 -6 -7 -6 -3 -4 -6 -6 -6 -4 -4 -5 -6 -6 -6 -6 -6 -6 -5 -5 -5 -5 -4 -4 -4 -4 -4 -5 -5 -4 -3 -3
-5 -5 -5 -2 -5 -4 -9 -7 -8 -8 -4 -7 -7 -6 -5 -2 -2 -6 -7 -5 -5 -6 -6 -5 -5 -4 -4 -4 -4 -5 -5 -5 -5 -5 -5 -5 -5 -4 -3 -4 -4 -3 -3 -3
-3 -3 -2 -2 -4 -3 -6 -8 -7 -4 -6 -7 -6 -3 -3 -3 -5 -6 -6 -7 -7 -6 -5 -4 -5 -5 -5 -4 -4 -4 -4 -3 -4 -4 -4 -4 -3 -4 -5 -3 -3 -4 -3 -4
-2 -2 -2 -2 -2 -1 -6 -7 -6 -7 -8 -6 -3 -4 -5 -5 -6 -6 -6 -5 -5 -5 -5 -5 -5 -5 -5 -4 -4 -3 -3 -3 -3 -3 -3 -3 -3 -4 -3 -4 -4 -3 -5 -5
-4 -6 -3 -3 -3 -7 -7 -9 -8 -8 -6 -4 -4 -5 -7 -7 -8 -7 -5 -6 -6 -5 -5 -4 -4 -3 -3 -3 -3 -3 -3 -3 -3 -3 -3 -3 -3 -3 -4 -3 -4 -4 -5 -3
-6 -6 -4 -5 -7 -7 -8 -9 -8 -8 -4 -4 -5 -6 -7 -8 -8 -6 -5 -5 -5 -5 -4 -4 -3 -3 -3 -3 -3 -3 -3 -3 -4 -3 -3 -4 -3 -3 -3 -4 -4 -5 -4 -4
-5 -6 -5 -5 -8 -8 -8 -8 -7 -6 -5 -5 -6 -7 -9 -7 -7 -5 -5 -5 -4 -4 -4 -3 -3 -3 -3 -3 -2 -3 -2 -3 -4 -4 -4 -3 -3 -4 -6 -6 -5 -4 -4 -3
-6 -5 -5 -6 -10 -9 -9 -8 -6 -5 -4 -5 -6 -8 -8 -6 -5 -5 -4 -4 -4 -4 -4 -3 -3 -3 -3 -3 -2 -2 -3 -3 -3 -4 -3 -3 -3 -3 -4 -5 -5 -5 -3 -1

GFSCGP_850_dewp_036.txt.gz
Dewpoint
-3 -3 -5 -5 -5 -5 -6 -5 -4 -4 -4 -4 -5 -5 -7 -7 -8 -8 -8 -8 -9 -11 -12 -13 -13 -14 -15 -16 -16 -17 -17 -17 -20 -22 -23 -17 -12 -6 -2 1 3 5 7 9
-4 -4 -5 -5 -5 -4 -3 -3 -3 -3 -2 -4 -4 -5 -7 -7 -7 -7 -8 -8 -9 -9 -11 -12 -13 -13 -14 -14 -14 -14 -14 -14 -15 -15 -15 -18 -16 -13 -11 -10 -8 -3 0 3
-3 -4 -4 -5 -3 -3 -3 -3 -3 -2 -1 -4 -5 -4 -7 -11 -10 -7 -7 -8 -8 -8 -9 -10 -11 -12 -12 -12 -12 -13 -13 -14 -14 -14 -14 -14 -13 -15 -15 -13 -13 -12 -11 -8
-3 -4 -3 -4 -3 -2 -1 -3 -2 -1 0 -2 -3 -1 -4 -9 -12 -13 -13 -12 -10 -8 -7 -9 -10 -11 -11 -10 -11 -11 -11 -11 -12 -12 -11 -10 -8 -9 -10 -13 -11 -8 -8 -10
-5 -4 -3 -2 -2 -2 -1 -4 -2 -1 0 -0 -0 2 0 -10 -10 -12 -12 -11 -12 -13 -12 -9 -9 -9 -10 -10 -10 -10 -10 -11 -11 -11 -12 -10 -9 -9 -9 -9 -9 -5 -4 -6
-2 -3 -4 -3 -3 -4 -5 -5 -4 -0 0 -1 -2 1 -1 -8 -10 -11 -11 -11 -11 -11 -11 -12 -9 -9 -9 -10 -9 -9 -9 -9 -10 -10 -9 -9 -8 -8 -8 -8 -9 -4 -3 -4
-6 -3 -6 -5 -5 -6 -4 -9 -8 -9 -2 -2 -2 -0 -2 -7 -11 -11 -11 -11 -10 -11 -10 -11 -10 -9 -8 -8 -8 -8 -8 -8 -8 -8 -8 -8 -7 -7 -7 -7 -8 -9 -9 -8
-5 -4 -6 -6 -5 -5 -3 -4 -6 -12 -9 -5 -2 -2 -5 -11 -11 -10 -10 -10 -10 -10 -11 -10 -9 -7 -8 -7 -7 -6 -7 -7 -7 -7 -7 -6 -6 -6 -6 -5 -5 -6 -10 -9
-9 -12 -11 -9 -9 -9 -6 -5 -5 -5 -4 -4 -5 -5 -9 -11 -11 -10 -9 -9 -10 -9 -9 -9 -9 -8 -7 -7 -7 -8 -8 -10 -9 -7 -6 -6 -5 -6 -6 -5 -5 -8 -9 -10
-8 -17 -11 -10 -9 -11 -8 -8 -6 -6 -7 -7 -8 -8 -6 -9 -9 -9 -9 -9 -9 -8 -8 -8 -8 -8 -9 -10 -10 -9 -9 -9 -9 -7 -6 -5 -5 -5 -6 -7 -12 -11 -6 -8
-10 -13 -17 -13 -10 -9 -11 -8 -6 -6 -6 -5 -5 -7 -11 -10 -9 -9 -9 -9 -9 -9 -7 -7 -8 -10 -11 -11 -9 -8 -8 -6 -8 -7 -8 -7 -7 -5 -5 -6 -12 -10 -8 -7
-8 -10 -12 -16 -14 -11 -10 -10 -9 -4 -8 -5 -4 -3 -9 -10 -9 -10 -9 -8 -8 -8 -7 -9 -10 -10 -9 -8 -7 -7 -7 -6 -5 -6 -5 -5 -5 -5 -5 -7 -9 -9 -8 -7
-10 -12 -11 -15 -10 -7 -7 -7 -6 -5 -3 -3 -3 -7 -9 -9 -9 -9 -9 -8 -8 -8 -9 -9 -8 -7 -7 -7 -6 -6 -6 -5 -5 -4 -4 -6 -3 -4 -4 -7 -7 -7 -8 -8
-8 -11 -12 -5 -10 -7 -5 -6 -6 -6 -3 -4 -4 -9 -10 -9 -9 -9 -8 -8 -8 -9 -8 -7 -7 -6 -6 -6 -7 -7 -6 -5 -4 -3 -5 -3 -2 -5 -4 -4 -5 -6 -8 -6
-8 -6 -7 -6 -7 -9 -8 -9 -5 -4 -5 -6 -12 -8 -10 -11 -9 -8 -8 -7 -8 -7 -6 -6 -6 -6 -7 -6 -6 -5 -4 -4 -4 -3 -3 -2 -3 -2 -4 -4 -4 -4 -6 -6
-5 -6 -3 -5 -4 -4 -3 -4 -4 -5 -5 -5 -5 -5 -8 -8 -8 -8 -7 -8 -6 -5 -6 -6 -7 -7 -5 -5 -5 -5 -5 -5 -4 -4 -4 -4 -3 -3 -3 -4 -4 -4 -7 -5
-4 -3 -3 -6 -4 -5 -7 -9 -5 -4 -4 -5 -4 -7 -8 -7 -6 -7 -7 -5 -6 -7 -7 -7 -6 -5 -6 -6 -6 -5 -5 -5 -5 -5 -5 -5 -5 -4 -3 -3 -3 -4 -4 -5
-4 -4 -3 -3 -5 -7 -9 -8 -7 -6 -5 -5 -5 -5 -6 -7 -7 -5 -7 -7 -7 -7 -7 -6 -6 -6 -6 -5 -5 -5 -5 -4 -4 -4 -5 -5 -5 -5 -4 -4 -4 -4 -5 -4
-5 -4 -3 -5 -3 -6 -9 -7 -6 -5 -6 -6 -5 -6 -7 -8 -5 -5 -7 -7 -8 -7 -7 -7 -6 -5 -5 -5 -5 -5 -5 -5 -4 -4 -4 -3 -3 -4 -4 -4 -4 -4 -4 -3
-5 -6 -6 -3 -6 -5 -9 -7 -8 -9 -6 -8 -7 -7 -6 -3 -2 -6 -6 -8 -8 -8 -8 -6 -5 -5 -5 -4 -4 -3 -3 -3 -3 -3 -3 -4 -3 -3 -3 -3 -3 -2 -4 -3
-3 -3 -2 -2 -4 -4 -7 -7 -8 -7 -6 -7 -8 -7 -4 -3 -4 -6 -7 -9 -9 -9 -8 -5 -5 -4 -4 -3 -3 -3 -3 -3 -3 -3 -3 -3 -3 -4 -3 -3 -3 -3 -2 -3
-2 -2 -2 -3 -2 -2 -7 -6 -6 -7 -9 -8 -7 -4 -3 -5 -6 -7 -8 -8 -8 -7 -7 -5 -4 -4 -3 -3 -3 -3 -3 -2 -2 -3 -3 -4 -3 -3 -4 -3 -3 -3 -4 -3
-4 -5 -3 -3 -3 -7 -7 -9 -9 -8 -8 -7 -4 -5 -6 -6 -7 -8 -8 -7 -6 -6 -5 -4 -4 -4 -3 -3 -3 -3 -3 -2 -2 -2 -2 -4 -4 -3 -4 -3 -3 -3 -3 -4
-7 -7 -5 -6 -7 -7 -8 -8 -8 -8 -8 -6 -5 -5 -6 -7 -8 -7 -7 -6 -6 -5 -4 -4 -4 -4 -3 -3 -3 -3 -3 -3 -3 -3 -3 -3 -4 -4 -3 -3 -5 -6 -6 -5
-6 -6 -6 -5 -7 -8 -8 -9 -9 -8 -8 -5 -5 -5 -6 -8 -9 -7 -6 -6 -5 -5 -4 -4 -4 -4 -3 -3 -3 -3 -3 -3 -3 -3 -3 -3 -4 -3 -3 -4 -6 -5 -5 -5
-5 -5 -5 -4 -7 -8 -9 -9 -8 -8 -7 -5 -5 -5 -8 -9 -8 -7 -7 -6 -5 -4 -4 -4 -4 -4 -3 -3 -3 -3 -3 -3 -3 -3 -2 -2 -3 -3 -3 -3 -4 -5 -5 -4

GFSCGP_850_dewp_042.txt.gz
Dewpoint
-3 -5 -7 -5 -5 -6 -4 -3 -3 -4 -3 -2 -3 -3 -4 -6 -6 -7 -7 -9 -10 -10 -9 -8 -8 -9 -9 -9 -9 -9 -8 -7 -7 -7 -7 -7 -7 -8 -8 -9 -16 -13 -10 -8
-4 -6 -4 -5 -4 -3 -3 -3 -4 -3 -2 -3 -2 -2 -4 -6 -7 -7 -8 -9 -9 -9 -10 -9 -9 -8 -8 -8 -8 -9 -8 -7 -7 -6 -7 -7 -8 -7 -6 -6 -6 -8 -6 -7
-4 -3 -4 -3 -3 -2 -3 -3 -4 -3 -1 -3 -3 -2 -3 -6 -7 -8 -8 -9 -9 -8 -9 -9 -8 -8 -7 -7 -7 -8 -8 -8 -7 -6 -6 -6 -7 -7 -7 -7 -6 -6 -7 -5
-3 -4 -3 -3 -3 -3 -3 -4 -2 -1 -1 -2 -4 -9 -2 -5 -6 -8 -9 -9 -10 -10 -10 -10 -9 -8 -7 -7 -6 -6 -7 -7 -7 -6 -6 -6 -7 -7 -6 -5 -6 -5 -5 -5
-2 -3 -2 -2 -2 -2 -1 -3 -3 -2 -2 -2 -2 -2 -3 -5 -6 -7 -10 -11 -11 -11 -11 -10 -10 -9 -9 -6 -7 -8 -6 -7 -7 -7 -7 -6 -5 -6 -6 -6 -5 -5 -5 -5
-3 -3 -4 -3 -3 -4 -5 -4 -3 -2 -2 -1 -4 -2 -7 -5 -6 -8 -11 -11 -11 -10 -10 -10 -10 -9 -9 -6 -6 -5 -6 -8 -8 -8 -8 -8 -8 -7 -7 -6 -5 -6 -6 -5
-2 -3 -6 -5 -4 -5 -5 -6 -7 -3 0 -3 -2 -1 -5 -4 -8 -9 -11 -11 -10 -10 -9 -9 -9 -9 -8 -7 -7 -8 -9 -9 -10 -10 -9 -8 -7 -7 -7 -6 -6 -5 -5 -5
-5 -1 -4 -8 -5 -6 -4 -5 -8 -6 -8 -8 -2 -2 -6 -9 -9 -10 -10 -10 -9 -9 -9 -9 -8 -8 -7 -7 -8 -9 -9 -10 -9 -9 -8 -9 -9 -8 -7 -6 -5 -5 -5 -5
-9 -8 -9 -10 -8 -7 -5 -6 -4 -7 -6 -7 -9 -9 -9 -10 -10 -10 -10 -9 -8 -8 -8 -8 -8 -7 -7 -8 -9 -9 -9 -10 -9 -9 -9 -9 -9 -8 -7 -6 -6 -5 -6 -5
-10 -13 -11 -10 -9 -8 -7 -7 -5 -7 -7 -7 -10 -9 -11 -7 -8 -9 -9 -9 -8 -8 -8 -8 -8 -7 -8 -8 -8 -9 -10 -10 -9 -9 -9 -9 -8 -7 -7 -6 -6 -5 -5 -4
-10 -12 -12 -11 -8 -8 -6 -7 -7 -6 -7 -7 -7 -9 -12 -11 -11 -10 -10 -10 -9 -8 -8 -8 -8 -8 -8 -8 -9 -9 -9 -9 -9 -9 -7 -7 -6 -6 -6 -5 -5 -5 -5 -6
-10 -12 -13 -15 -12 -10 -10 -11 -9 -8 -6 -7 -4 -5 -11 -11 -11 -10 -11 -10 -9 -8 -7 -7 -7 -8 -8 -8 -10 -11 -10 -9 -8 -7 -6 -6 -5 -5 -5 -5 -5 -5 -5 -5
-9 -10 -8 -8 -6 -7 -8 -9 -10 -6 -5 -3 -5 -7 -11 -10 -10 -10 -10 -10 -9 -8 -8 -8 -8 -8 -8 -10 -11 -11 -9 -7 -6 -6 -5 -5 -5 -5 -5 -5 -5 -5 -5 -4
-8 -9 -9 -6 -5 -7 -6 -6 -8 -9 -2 -7 -6 -8 -11 -10 -10 -11 -10 -9 -9 -9 -7 -7 -7 -7 -10 -11 -10 -9 -7 -6 -5 -5 -5 -5 -5 -5 -4 -4 -4 -5 -5 -5
-7 -7 -8 -10 -9 -10 -11 -10 -8 -7 -9 -7 -8 -9 -11 -12 -11 -11 -10 -9 -8 -8 -8 -7 -7 -9 -10 -10 -9 -7 -6 -5 -5 -5 -5 -5 -5 -4 -4 -4 -4 -4 -4 -5
-5 -5 -5 -7 -6 -6 -5 -7 -7 -8 -8 -8 -9 -7 -10 -10 -9 -10 -9 -8 -8 -8 -7 -7 -8 -10 -9 -9 -7 -6 -5 -5 -4 -4 -4 -3 -3 -3 -3 -3 -3 -4 -4 -4
-5 -5 -5 -4 -8 -8 -6 -8 -9 -8 -8 -8 -7 -9 -8 -8 -8 -9 -8 -7 -7 -7 -6 -7 -9 -9 -8 -7 -5 -5 -4 -4 -4 -3 -3 -3 -2 -2 -2 -2 -3 -3 -3 -3
-5 -6 -6 -2 -6 0 -6 -10 -9 -9 -8 -7 -7 -7 -8 -7 -6 -7 -7 -7 -7 -6 -6 -8 -9 -8 -6 -5 -5 -4 -3 -3 -3 -3 -2 -3 -3 -3 -2 -2 -2 -3 -3 -3
-5 -6 -4 -1 -3 -5 -6 -7 -7 -7 -8 -8 -7 -7 -8 -7 -5 -8 -6 -6 -5 -5 -7 -8 -7 -6 -5 -5 -5 -4 -3 -3 -3 -3 -2 -3 -3 -3 -2 -2 -2 -3 -3 -4
-5 -6 -5 -4 1 2 -5 -7 -7 -7 -4 -8 -7 -8 -8 -6 -7 -8 -6 -5 -5 -7 -7 -7 -6 -5 -5 -5 -4 -3 -3 -3 -3 -3 -4 -3 -3 -2 -2 -2 -2 -3 -3 -3
-3 -3 -0 -1 1 -2 -7 -8 -7 -4 -2 -8 -8 -9 -7 -6 -8 -6 -4 -5 -6 -7 -6 -6 -5 -5 -5 -4 -4 -3 -4 -3 -4 -4 -3 -3 -3 -3 -2 -2 -3 -3 -3 -4
-0 1 -0 -2 1 2 -7 -7 -5 -6 -7 -7 -7 -7 -6 -6 -5 -4 -4 -5 -6 -6 -6 -6 -5 -5 -5 -4 -4 -4 -4 -4 -3 -4 -3 -3 -3 -2 -2 -2 -3 -4 -3 -3
-2 -5 -1 -2 -0 -5 -7 -8 -7 -6 -7 -7 -6 -6 -5 -4 -4 -4 -5 -6 -6 -6 -6 -6 -5 -5 -5 -5 -4 -4 -3 -4 -4 -3 -3 -3 -3 -2 -2 -2 -2 -3 -3 -3
-6 -7 -4 -4 -6 -7 -7 -7 -7 -6 -6 -6 -6 -5 -4 -4 -4 -4 -5 -6 -6 -6 -6 -6 -6 -5 -5 -4 -4 -4 -4 -3 -4 -4 -3 -3 -3 -2 -2 -2 -2 -2 -3 -3
-5 -7 -6 -5 -7 -6 -6 -5 -5 -6 -6 -8 -8 -6 -4 -4 -4 -5 -6 -6 -6 -6 -6 -7 -6 -5 -4 -4 -4 -3 -4 -3 -4 -4 -3 -3 -3 -2 -2 -2 -2 -2 -2 -3
-6 -6 -4 -3 -7 -6 -6 -6 -6 -6 -6 -7 -7 -4 -6 -5 -5 -6 -6 -6 -6 -6 -6 -6 -5 -4 -4 -4 -4 -4 -4 -4 -4 -3 -3 -3 -3 -2 -2 -2 -2 -1 -2 -2

GFSCGP_850_dewp_045.txt.gz
Dewpoint
-5 -5 -7 -10 -7 -7 -8 -7 -6 -6 -4 -3 -4 -4 -3 -4 -4 -5 -6 -7 -8 -9 -8 -8 -8 -9 -9 -9 -9 -9 -8 -8 -8 -6 -6 -7 -6 -7 -6 -6 -5 -5 -5 -5
-6 -7 -4 -5 -5 -4 -5 -4 -4 -5 -4 -3 -4 -2 -4 -4 -5 -5 -6 -7 -8 -9 -10 -9 -8 -8 -8 -8 -7 -8 -8 -8 -7 -6 -6 -6 -6 -7 -6 -7 -6 -6 -5 -5
-6 -2 -4 -4 -3 -3 -3 -3 -5 -5 -2 -2 -1 -2 -3 -4 -5 -6 -6 -7 -8 -8 -9 -9 -9 -8 -7 -7 -7 -7 -7 -7 -7 -7 -6 -7 -7 -7 -6 -6 -6 -5 -5 -5
-4 -3 -4 -3 -3 -3 -2 -4 -3 -2 -1 -3 -4 -8 -1 -3 -4 -6 -7 -7 -8 -8 -8 -8 -9 -9 -8 -8 -6 -6 -7 -7 -7 -8 -7 -7 -7 -7 -7 -6 -7 -6 -5 -5
-2 -3 -2 -2 -3 -3 -2 -2 -2 -1 -1 -4 -4 -2 -2 -4 -4 -5 -7 -7 -8 -9 -9 -10 -10 -9 -9 -9 -7 -5 -5 -6 -8 -8 -8 -9 -8 -8 -7 -7 -7 -7 -6 -6
-3 -3 -4 -3 -3 -3 -3 -3 -3 -3 -3 -2 -5 -3 -5 -3 -5 -6 -7 -8 -9 -10 -10 -9 -9 -8 -8 -7 -5 -5 -6 -8 -8 -9 -9 -9 -9 -8 -7 -7 -7 -6 -6 -6
-3 -3 -5 -5 -3 -3 -3 -3 -3 1 2 -0 -4 -4 -8 -5 -8 -8 -8 -9 -10 -10 -9 -9 -9 -8 -7 -6 -6 -7 -8 -8 -9 -9 -9 -9 -9 -8 -8 -8 -8 -7 -6 -6
-5 -1 -3 -6 -4 -4 -5 -5 -5 -3 -5 -6 -3 -4 -5 -8 -8 -9 -9 -10 -10 -9 -9 -8 -8 -7 -7 -7 -7 -8 -8 -9 -9 -10 -10 -9 -9 -9 -9 -8 -8 -7 -6 -6
-8 -6 -7 -8 -8 -7 -4 -7 -4 -7 -9 -6 -9 -7 -7 -10 -9 -10 -10 -9 -9 -8 -8 -8 -7 -7 -7 -7 -8 -8 -8 -9 -10 -10 -10 -10 -9 -9 -8 -7 -7 -7 -6 -6
-10 -11 -9 -8 -9 -7 -6 -7 -4 -5 -5 -4 -9 -8 -9 -7 -8 -10 -10 -9 -8 -7 -7 -8 -8 -8 -7 -8 -8 -8 -9 -10 -11 -11 -10 -9 -7 -7 -6 -6 -6 -6 -5 -5
-11 -12 -10 -11 -8 -8 -6 -8 -8 -7 -7 -6 -5 -7 -12 -11 -11 -10 -10 -10 -9 -8 -8 -8 -8 -8 -8 -8 -9 -9 -10 -12 -11 -10 -8 -7 -6 -6 -6 -5 -5 -5 -5 -5
-10 -9 -11 -12 -11 -10 -9 -9 -9 -6 -5 -6 -4 -4 -12 -12 -12 -11 -12 -12 -11 -10 -8 -7 -7 -8 -9 -8 -8 -10 -12 -11 -10 -8 -7 -6 -5 -5 -5 -5 -5 -5 -5 -5
-8 -9 -7 -7 -6 -8 -11 -11 -11 -10 -4 -2 -3 -5 -12 -11 -11 -10 -9 -10 -10 -10 -8 -8 -8 -8 -8 -8 -10 -12 -11 -10 -9 -7 -6 -5 -5 -5 -5 -5 -5 -5 -5 -4
-8 -8 -8 -6 -6 -7 -7 -7 -8 -9 -4 -5 -5 -7 -9 -9 -9 -11 -11 -11 -10 -9 -9 -8 -7 -7 -7 -9 -11 -12 -11 -9 -7 -6 -5 -5 -4 -4 -4 -3 -3 -3 -4 -4
-7 -6 -8 -8 -10 -10 -10 -10 -11 -7 -8 -7 -7 -8 -9 -10 -10 -11 -11 -10 -9 -9 -8 -8 -7 -7 -8 -10 -11 -10 -8 -7 -6 -5 -5 -4 -4 -4 -3 -3 -4 -3 -3 -2
-6 -5 -5 -7 -9 -7 -7 -8 -8 -8 -9 -9 -9 -7 -9 -9 -10 -9 -9 -8 -8 -8 -8 -7 -7 -7 -10 -10 -9 -8 -7 -6 -5 -4 -4 -4 -4 -3 -3 -3 -2 -3 -3 -3
-5 -5 -3 -3 -7 -7 -5 -6 -7 -7 -9 -7 -5 -7 -9 -8 -8 -8 -8 -8 -8 -8 -7 -7 -7 -9 -10 -9 -7 -7 -6 -5 -5 -4 -4 -4 -3 -3 -3 -4 -3 -3 -2 -3
-5 -6 -5 -0 -3 1 -4 -7 -7 -7 -7 -8 -8 -7 -8 -8 -7 -7 -8 -7 -7 -7 -6 -6 -9 -9 -8 -7 -7 -6 -5 -5 -4 -4 -3 -4 -3 -4 -3 -3 -2 -2 -2 -2
-6 -6 -3 2 0 -3 -5 -6 -7 -7 -7 -8 -8 -8 -8 -8 -7 -7 -7 -6 -6 -6 -6 -7 -8 -8 -7 -7 -6 -5 -5 -5 -4 -4 -4 -4 -3 -3 -3 -3 -3 -2 -2 -3
-5 -6 -3 -1 3 3 -3 -7 -8 -8 -3 -8 -8 -7 -7 -7 -4 -5 -6 -6 -6 -6 -6 -7 -7 -7 -7 -6 -5 -5 -5 -4 -4 -3 -4 -3 -3 -3 -3 -3 -2 -2 -2 -2
-3 -2 0 0 3 0 -5 -7 -7 -2 -1 -5 -6 -6 -6 -5 -6 -7 -6 -5 -5 -5 -7 -7 -7 -7 -7 -6 -6 -5 -5 -5 -4 -4 -4 -4 -4 -3 -3 -3 -2 -2 -2 -2
-0 2 1 -1 2 3 -6 -6 -5 -5 -5 -5 -5 -6 -5 -6 -6 -6 -5 -4 -5 -6 -7 -7 -7 -7 -6 -6 -6 -5 -5 -4 -4 -4 -4 -4 -3 -3 -3 -3 -2 -2 -2 -2
-2 -5 -2 -2 1 -5 -5 -6 -6 -5 -5 -5 -5 -5 -5 -5 -5 -5 -4 -4 -5 -7 -7 -7 -7 -7 -7 -6 -5 -5 -4 -4 -4 -4 -4 -4 -3 -3 -3 -2 -2 -2 -2 -2
-5 -6 -2 -2 -6 -7 -8 -7 -6 -5 -5 -5 -5 -5 -6 -5 -4 -4 -4 -5 -6 -7 -7 -7 -7 -7 -7 -5 -5 -4 -4 -4 -4 -4 -4 -3 -3 -3 -2 -2 -2 -2 -2 -2
-6 -6 -6 -6 -7 -8 -8 -7 -6 -5 -5 -5 -5 -5 -5 -4 -4 -4 -4 -5 -6 -7 -7 -6 -7 -7 -6 -5 -4 -4 -4 -4 -5 -4 -3 -3 -3 -3 -2 -2 -2 -2 -2 -1
-6 -5 -4 -3 -7 -7 -7 -7 -6 -5 -5 -5 -5 -5 -5 -3 -4 -4 -4 -5 -6 -7 -6 -7 -7 -7 -6 -5 -4 -4 -5 -5 -4 -3 -3 -3 -3 -3 -2 -2 -1 -1 -1 -1

GFSCGP_850_dewp_048.txt.gz
Dewpoint
-4 -2 -1 -4 -4 -4 -5 -6 -5 -5 -2 -2 -0 -1 -3 -2 -4 -4 -5 -6 -7 -8 -8 -8 -8 -9 -9 -9 -8 -8 -8 -8 -8 -9 -10 -12 -13 -10 -12 -14 -12 -9 -7 -7
-4 -2 -3 -5 -4 -3 -3 -3 -3 -2 -3 -2 -2 -2 -2 -2 -3 -4 -4 -6 -7 -8 -8 -8 -8 -8 -8 -8 -7 -7 -7 -8 -9 -7 -7 -7 -7 -7 -9 -10 -8 -6 -7 -7
-3 -2 -4 -5 -3 -3 -2 -1 -1 -3 -2 -2 -0 1 0 -2 -3 -4 -5 -5 -7 -8 -9 -9 -9 -8 -7 -7 -7 -7 -7 -7 -7 -7 -8 -8 -8 -9 -9 -8 -8 -8 -8 -7
-3 -3 -4 -3 -3 -3 0 -2 -2 -2 0 2 -2 1 -2 -1 -2 -4 -5 -5 -6 -8 -8 -8 -8 -8 -8 -8 -8 -7 -6 -6 -6 -6 -8 -8 -9 -9 -9 -8 -8 -7 -7 -7
-2 -2 -2 -1 -2 -2 0 -1 -1 -0 1 -0 -2 0 -1 -1 -1 -3 -5 -6 -7 -8 -7 -8 -8 -9 -9 -9 -8 -8 -6 -4 -6 -8 -9 -9 -9 -9 -9 -9 -8 -8 -8 -7
-2 -3 -4 -2 -2 -3 -3 -2 -0 -1 -0 1 -3 -1 1 -1 -2 -4 -6 -7 -7 -7 -8 -9 -10 -9 -8 -8 -7 -5 -5 -7 -8 -8 -9 -9 -10 -10 -9 -9 -8 -8 -8 -7
-3 -3 -5 -5 -3 -2 -2 0 2 4 5 3 -3 -1 -4 -5 -7 -7 -6 -7 -7 -8 -9 -9 -9 -8 -8 -7 -6 -6 -7 -7 -8 -8 -9 -10 -10 -10 -10 -9 -9 -8 -8 -7
-3 1 -2 -5 -3 -2 -0 -2 1 0 0 -3 -3 0 -4 -7 -8 -8 -8 -8 -8 -9 -9 -9 -8 -8 -7 -7 -6 -6 -7 -8 -8 -9 -10 -10 -10 -10 -10 -9 -8 -7 -6 -6
-4 -2 -6 -7 -7 -6 -3 -3 -3 -4 -8 -5 -4 -4 -7 -9 -9 -10 -9 -10 -10 -10 -9 -8 -8 -7 -7 -7 -7 -7 -8 -8 -9 -10 -11 -11 -11 -10 -8 -7 -6 -6 -5 -5
-8 -8 -8 -8 -8 -6 -5 -5 -2 -3 -2 -1 -5 -4 -2 -7 -8 -9 -9 -9 -9 -8 -8 -8 -7 -7 -8 -8 -7 -8 -8 -8 -10 -12 -12 -10 -9 -8 -7 -6 -6 -5 -5 -5
-9 -9 -8 -10 -6 -5 -4 -6 -7 -5 -5 -3 -2 -3 -11 -8 -9 -8 -10 -10 -9 -8 -7 -7 -7 -8 -7 -7 -8 -8 -8 -9 -11 -12 -11 -10 -8 -7 -6 -5 -5 -5 -5 -5
-8 -6 -6 -8 -9 -9 -8 -6 -7 -2 -1 0 1 0 -11 -11 -10 -11 -11 -11 -11 -10 -9 -7 -7 -7 -7 -8 -8 -8 -9 -11 -12 -11 -10 -8 -7 -5 -5 -5 -4 -4 -4 -3
-5 -6 -3 -5 -5 -8 -10 -10 -8 -8 -3 1 1 -3 -11 -11 -10 -10 -9 -9 -10 -10 -10 -9 -8 -8 -8 -7 -7 -8 -10 -11 -11 -9 -8 -6 -5 -5 -4 -4 -4 -4 -3 -3
-5 -4 -5 -1 -5 -4 -6 -6 -8 -7 0 -4 -3 -5 -7 -8 -7 -10 -11 -10 -9 -10 -9 -9 -8 -8 -7 -7 -7 -10 -11 -10 -9 -8 -6 -5 -5 -4 -4 -4 -4 -4 -4 -3
-5 -3 -5 -5 -6 -7 -8 -7 -8 -8 -7 -5 -6 -6 -8 -8 -9 -10 -10 -9 -9 -8 -8 -8 -8 -7 -7 -7 -9 -10 -10 -9 -7 -6 -6 -5 -4 -4 -5 -5 -4 -4 -3 -3
-5 -2 -4 -4 -7 -7 -6 -6 -7 -7 -7 -7 -7 -6 -7 -8 -8 -9 -9 -7 -7 -8 -8 -8 -7 -6 -7 -9 -10 -9 -8 -7 -6 -6 -5 -5 -4 -5 -4 -4 -4 -4 -3 -3
-3 -2 -1 1 -5 -4 -1 -4 -5 -6 -6 -6 -5 -5 -6 -6 -7 -7 -7 -7 -7 -7 -7 -7 -6 -7 -9 -9 -8 -8 -7 -6 -5 -5 -5 -5 -5 -4 -4 -4 -3 -3 -3 -2
-3 -4 -2 3 -1 4 -3 -6 -6 -5 -6 -5 -5 -5 -6 -7 -7 -7 -6 -6 -7 -7 -6 -6 -6 -8 -8 -8 -8 -7 -6 -6 -5 -5 -5 -4 -4 -4 -3 -3 -3 -3 -3 -3
-6 -4 1 4 4 0 -4 -5 -5 -6 -5 -5 -4 -5 -6 -6 -6 -6 -6 -6 -7 -6 -6 -6 -6 -7 -9 -8 -7 -6 -6 -6 -5 -5 -5 -4 -3 -4 -4 -4 -3 -4 -3 -3
-5 -4 -1 1 4 4 -1 -6 -8 -8 -1 -4 -4 -4 -4 -5 -2 -3 -5 -6 -5 -5 -5 -5 -7 -8 -7 -7 -6 -6 -6 -5 -5 -5 -5 -4 -5 -4 -4 -3 -3 -3 -3 -3
-2 -1 1 2 4 3 -3 -6 -7 -2 1 -4 -5 -4 -4 -3 -4 -5 -5 -5 -5 -4 -5 -6 -7 -7 -7 -7 -7 -6 -6 -5 -5 -5 -4 -4 -4 -4 -3 -3 -3 -3 -3 -2
1 4 3 1 4 3 -6 -6 -4 -4 -5 -4 -4 -4 -4 -4 -4 -4 -4 -5 -4 -4 -5 -7 -7 -7 -7 -7 -7 -6 -5 -5 -5 -4 -4 -4 -4 -3 -3 -3 -3 -2 -2 -2
1 -3 2 2 3 -3 -5 -6 -5 -5 -5 -5 -5 -5 -4 -4 -4 -5 -5 -4 -4 -5 -6 -7 -7 -7 -7 -7 -7 -5 -5 -5 -5 -5 -4 -4 -3 -3 -3 -3 -2 -2 -2 -2
-4 -6 1 -2 -4 -6 -7 -6 -7 -7 -6 -6 -5 -4 -4 -4 -4 -5 -4 -4 -4 -5 -7 -7 -7 -7 -7 -7 -6 -6 -5 -4 -4 -5 -4 -4 -3 -3 -3 -2 -2 -2 -1 -1
-3 -4 -4 -4 -5 -6 -6 -7 -6 -6 -5 -5 -4 -4 -4 -5 -4 -4 -4 -4 -4 -6 -7 -7 -7 -7 -7 -8 -8 -6 -5 -5 -5 -5 -4 -3 -3 -3 -3 -2 -1 -1 -1 -0
-3 -4 -3 -2 -6 -5 -5 -5 -5 -5 -5 -4 -4 -4 -4 -5 -4 -4 -4 -4 -5 -6 -7 -6 -7 -7 -9 -8 -7 -6 -6 -5 -5 -4 -4 -3 -3 -3 -3 -1 -1 0 -0 -0